This demonstration page uses our WeatherBlox Daily Observations layout. Learn more.

39.01783, -85.05884

Hourly Observations for June 15, 2019

Temp ( °F °C ) Dew Point ( °F °C ) Humidity (%) Winds ( mph kmh ) Pressure ( in mb ) Visibility ( mi km ) Precip ( " mm )
12:52 am 00:52 Cloudy 66 18.9 49 9.4 54 54 S 9 15 29.97 1015 10 16.09344 0 0
1:52 am 01:52 Cloudy 66 18.9 49 9.4 54 54 SSW 7 11 30 1016 10 16.09344 0 0
2:52 am 02:52 Cloudy 63 17.2 52 11.1 68 68 S 7 11 29.97 1015 10 16.09344 0 0
3:52 am 03:52 Cloudy 62 16.7 52 11.1 70 70 S 8 13 29.97 1015 10 16.09344 0 0
4:52 am 04:52 Cloudy 65 18.3 50 10 59 59 S 10 17 29.97 1015 10 16.09344 0 0
5:52 am 05:52 Cloudy 65 18.3 51 10.6 61 61 S 9 15 29.97 1015 10 16.09344 0.001 0.001
7:52 am 07:52 Mostly Cloudy 66 18.9 52 11.1 61 61 S 12 19 29.97 1015 10 16.09344 0 0
8:52 am 08:52 Mostly Cloudy with Light Rain 66 18.9 54 12.2 65 65 SSW 12 19 29.97 1015 10 16.09344 0.001 0.001
9:52 am 09:52 Mostly Cloudy 68 20 55 12.8 63 63 S 13 20 29.94 1014 10 16.09344 0.001 0.001
10:52 am 10:52 Mostly Cloudy with Light Rain 68 20 57 13.9 68 68 SW 10 17 29.97 1015 10 16.09344 0.001 0.001
11:52 am 11:52 Cloudy 70 21.1 59 15 68 68 S 10 17 29.94 1014 10 16.09344 0.01 0.254
12:52 pm 12:52 Cloudy 73 22.8 60 15.6 64 64 S 8 13 29.94 1014 10 16.09344 0.001 0.001
1:52 pm 13:52 Cloudy with Light Rain 75 23.9 61 16.1 62 62 SSW 7 11 29.94 1014 10 16.09344 0.001 0.001
2:52 pm 14:52 Cloudy with Light Rain 73 22.8 65 18.3 76 76 Calm 29.94 1014 10 16.09344 0.03 0.762
3:52 pm 15:52 Cloudy with Light Rain 70 21.1 65 18.3 84 84 SW 3 6 29.91 1013 10 16.09344 0.11 2.794
4:52 pm 16:52 Mostly Cloudy 73 22.8 66 18.9 79 79 S 5 7 29.88 1012 10 16.09344 0.001 0.001
5:20 pm 17:20 Cloudy with Nearby Thunderstorms 72 22.2 66 18.9 82 82 SW 6 9 29.88 1012 10 16.09344 0.001 0.001
5:30 pm 17:30 Cloudy with Light Thunderstorms 72 22.2 66 18.9 82 82 W 5 7 29.88 1012 10 16.09344 0.001 0.001
5:52 pm 17:52 Cloudy with Light Thunderstorms 70 21.1 66 18.9 87 87 SE 6 9 29.85 1011 8 12.874752 0.06 1.524
5:56 pm 17:56 Cloudy with Nearby Thunderstorms 70 21.1 67 19.4 90 90 SE 8 13 29.85 1011 6 9.656064 0.001 0.001
6:04 pm 18:04 Cloudy 71 21.7 67 19.4 87 87 S 3 6 29.85 1011 7 11.265408 0.001 0.001
6:52 pm 18:52 Cloudy 73 22.8 68 20 84 84 SE 5 7 29.83 1010 8 12.874752 0.001 0.001
7:52 pm 19:52 Cloudy 75 23.9 67 19.4 76 76 S 9 15 29.8 1009 10 16.09344 0 0
8:52 pm 20:52 Cloudy 75 23.9 64 17.8 69 69 S 12 19 29.8 1009 10 16.09344 0 0
9:37 pm 21:37 Cloudy with Nearby Thunderstorms 74 23.3 64 17.8 71 71 S 12 19 29.8 1009 7 11.265408 0.01 0.254
9:52 pm 21:52 Cloudy with Light Rain 73 22.8 65 18.3 76 76 S 10 17 29.8 1009 10 16.09344 0.03 0.762
10:52 pm 22:52 Cloudy with Light Rain 72 22.2 65 18.3 79 79 S 14 22 29.77 1008 10 16.09344 0.03 0.762
11:32 pm 23:32 Cloudy with Thunderstorms 73 22.8 66 18.9 79 79 SSW 12 19 29.85 1011 10 16.09344 0.1 2.54
11:44 pm 23:44 Cloudy with Thunderstorms 70 21.1 66 18.9 87 87 W 13 20 29.85 1011 4 6.437376 0.31 7.874
11:52 pm 23:52 Cloudy with Heavy Thunderstorms 70 21.1 67 19.4 90 90 W 15 24 29.83 1010 3 4.828032 0.48 12.192

Powered by AerisWeather